This is the latest recevied weather packets stored in our database for station/object KD2FKI. If no packets are shown the sender has not sent any weather packets the latest 10 day(s).
| Time | Temp. | Humidity | Pressure | Rain* | Wind** | Luminosity | Snow |
|---|---|---|---|---|---|---|---|
| 1777875062 | 6.11° C | 79% | - | 0 mm | - | - | - |
| 1777874431 | 6.11° C | 80% | - | 0 mm | - | - | - |
| 1777873838 | 5.56° C | 81% | - | 0 mm | - | - | - |
| 1777873247 | 5.56° C | 78% | - | 0 mm | - | - | - |
| 1777872636 | 5° C | 78% | - | 0 mm | - | - | - |
| 1777872044 | 5° C | 78% | - | 0 mm | - | - | - |
| 1777871433 | 5° C | 77% | - | 0 mm | - | - | - |
| 1777870842 | 5° C | 77% | - | 0 mm | - | - | - |
| 1777870232 | 5.56° C | 75% | - | 0 mm | - | - | - |
| 1777869642 | 5.56° C | 75% | - | 0 mm | - | - | - |
| 1777869049 | 5.56° C | 76% | - | 0 mm | - | - | - |
| 1777868436 | 6.11° C | 75% | - | 0 mm | - | - | - |
| 1777867864 | 6.11° C | 74% | - | 0 mm | - | - | - |
| 1777867235 | 6.11° C | 73% | - | 0 mm | - | - | - |
| 1777866644 | 6.67° C | 70% | - | 0 mm | - | - | - |
| 1777866031 | 6.67° C | 68% | - | 0 mm | - | - | - |
| 1777865441 | 6.67° C | 69% | - | 0 mm | - | - | - |
| 1777864830 | 6.67° C | 69% | - | 0 mm | - | - | - |
| 1777864240 | 7.22° C | 68% | - | 0 mm | - | - | - |
| 1777863646 | 7.22° C | 69% | - | 0 mm | - | - | - |
| 1777863036 | 7.78° C | 64% | - | 0 mm | - | - | - |
| 1777862444 | 7.78° C | 61% | - | 0 mm | - | - | - |
| 1777861834 | 8.33° C | 60% | - | 0 mm | - | - | - |
| 1777861242 | 8.89° C | 59% | - | 0 mm | - | - | - |
| 1777860632 | 8.89° C | 56% | - | 0 mm | - | - | - |
* Rain latest hour (hover to see other rain measurements)
** Current wind speed in m/s (hover to see current wind gust speed)